Wetbulb
77.36 78.41 79.01 75.96 66.39 62.55 58.73 59.77 64.45 61.94 64.05 67.57 68.47 66.68 66.16 67.26 64.89 59.74 68.85 71.34 71.17 71.72 73.40 75.06 77.11 77.15 77.52 77.72 77.61 77.32 77.41 76.89 76.99 77.32 77.48 77.16 77.08 76.74 77.51 77.16 77.14 76.99 77.37 77.39 77.25 77.22 77.31 77.33 77.06
80.10 78.65 77.77 73.98 61.74 57.35 58.38 62.82 62.07 64.74 67.04 68.49 68.16 67.40 66.89 64.43 70.06 69.58 68.74 70.89 72.72 73.58 74.62 74.97 77.22 77.61 77.39 77.70 77.66 77.81 77.14 77.00 77.29 77.46 77.35 77.23 77.10 77.02 77.11 76.98 77.35 77.27 77.12 77.26 77.09 77.15 77.41 77.13 76.91
80.09 78.77 73.05 64.48 61.98 58.31 58.72 63.21 64.10 66.06 67.91 67.33 66.44 69.23 68.24 65.98 70.07 70.97 72.52 73.05 73.87 74.64 76.49 76.58 77.31 77.94 77.35 77.52 77.60 77.55 77.38 77.41 77.35 77.33 77.44 77.10 77.02 76.85 77.10 77.10 77.22 77.11 77.28 76.97 77.04 77.14 76.78 76.75 76.80
78.69 77.71 73.09 62.73 60.03 62.74 63.01 64.78 65.76 65.75 67.80 68.38 68.55 65.81 69.46 71.98 71.88 72.80 74.31 74.51 74.34 75.22 76.04 76.67 77.51 77.43 77.41 77.38 77.44 77.50 77.33 77.28 77.20 76.98 76.94 76.75 76.99 76.87 76.93 77.19 77.11 76.95 77.20 77.03 76.86 76.72 76.70 76.39 76.06
78.27 72.82 62.47 61.35 61.10 63.64 65.70 66.46 66.62 65.36 66.01 66.86 68.33 66.03 67.00 71.71 74.34 74.70 75.05 74.26 75.03 74.59 76.37 77.18 78.49 78.09 77.47 77.33 77.37 77.47 77.28 77.39 77.52 77.39 76.94 76.92 76.63 76.80 76.79 76.86 76.73 76.61 76.69 76.59 76.70 76.86 76.64 75.92 76.03
71.62 66.58 60.52 59.16 61.24 64.35 66.28 67.54 66.47 66.33 66.95 67.87 67.43 67.44 67.10 73.34 73.28 74.58 74.95 74.92 75.51 74.61 75.54 76.77 78.08 78.03 78.03 77.56 77.31 77.25 77.00 77.06 76.73 76.59 76.28 76.45 75.42 75.78 76.03 76.06 76.25 76.28 76.84 76.64 76.61 76.38 76.37 75.89 75.84
66.76 63.05 60.30 60.38 61.35 63.31 65.18 68.50 65.82 66.11 66.47 66.99 69.68 66.20 69.50 70.42 73.70 73.83 75.17 74.91 75.15 75.40 74.18 75.37 76.08 77.69 77.52 77.27 77.10 77.03 77.06 77.17 76.67 76.42 76.17 75.81 75.43 76.18 75.14 75.23 74.77 75.42 75.97 76.26 76.27 76.44 76.14 75.75 75.17
69.65 63.49 59.86 61.08 60.71 62.28 66.46 67.58 68.63 66.92 66.51 70.31 70.79 65.79 66.85 70.63 73.24 73.82 74.74 74.36 74.81 74.61 75.08 75.31 75.56 75.71 76.49 76.41 76.89 76.59 76.45 76.42 75.89 76.39 76.48 76.05 75.78 75.55 75.42 73.89 74.86 74.78 75.30 75.81 75.31 75.50 75.64 75.34 75.26
69.86 61.69 60.23 60.69 61.86 63.95 67.45 66.59 68.99 69.96 67.98 69.00 69.67 69.87 71.81 73.27 74.54 74.04 73.03 74.47 73.70 74.80 73.98 74.49 74.32 74.69 74.94 76.23 77.25 77.06 76.80 76.09 76.18 76.45 77.30 76.26 75.41 72.89 72.41 72.79 73.88 74.51 75.21 76.02 75.50 75.17 75.34 75.73 75.75
64.01 61.98 62.50 65.14 66.05 65.33 66.56 67.17 67.26 67.20 67.06 67.43 68.44 71.31 72.36 72.54 72.54 72.06 71.80 72.11 72.71 72.76 72.70 73.88 73.93 73.73 74.92 75.41 78.24 77.25 76.69 76.12 76.82 77.57 77.03 75.85 75.74 75.35 74.79 73.79 74.92 74.24 73.90 75.03 75.78 75.59 76.11 75.56 72.95
64.45 61.98 65.76 66.70 67.85 68.16 66.46 66.51 68.24 66.42 65.49 67.71 67.34 69.46 71.04 71.47 71.65 71.49 71.68 71.54 71.08 72.36 72.12 72.60 74.72 75.44 75.42 76.70 75.51 74.94 75.60 74.78 76.68 77.07 76.14 75.10 75.48 74.75 73.41 71.94 72.53 73.62 74.35 73.81 75.07 75.32 74.38 73.00 72.71
62.37 65.73 66.62 67.67 68.12 67.11 65.96 66.48 65.16 66.98 66.77 70.11 70.20 71.03 71.12 70.86 70.85 70.95 70.56 70.92 70.44 70.70 71.94 73.08 75.08 75.89 75.48 76.14 75.38 74.54 74.14 75.00 75.85 76.00 76.41 76.16 73.18 74.14 74.18 73.40 71.43 72.27 72.54 72.33 72.99 71.63 73.01 75.27 73.15
63.20 65.80 66.99 67.93 67.81 67.54 67.26 65.36 65.56 66.33 69.35 71.07 70.83 70.68 70.67 70.75 71.22 71.65 71.09 70.76 70.97 69.91 71.84 73.82 75.23 76.52 76.72 76.85 74.92 76.39 75.65 74.68 74.76 75.16 74.72 74.86 74.21 73.70 75.12 75.29 72.99 71.76 70.54 73.10 72.82 73.70 74.23 73.30 72.28
65.49 65.75 66.68 67.99 67.52 67.30 65.97 66.02 66.29 67.27 69.96 69.80 69.91 70.45 71.07 71.08 71.61 71.84 71.69 71.77 72.12 71.74 71.60 73.42 74.94 76.30 76.10 74.50 75.87 75.68 75.74 75.17 75.99 75.09 76.46 76.39 75.12 75.24 74.61 74.96 74.91 74.21 73.36 72.26 71.53 74.66 73.89 72.77 72.52
65.60 63.74 65.84 66.48 67.25 66.09 68.33 64.30 64.44 68.23 69.53 68.87 69.50 70.41 70.98 71.58 72.27 72.01 72.96 73.05 73.66 73.86 73.75 73.72 75.23 76.61 76.38 75.97 75.67 76.48 76.41 76.88 76.13 76.36 74.54 75.40 75.67 75.22 75.00 75.81 77.05 74.45 73.19 71.74 68.94 73.96 73.98 72.80 70.87
62.66 62.88 59.98 64.67 66.68 67.47 66.47 61.86 65.76 68.58 68.44 68.02 69.14 69.96 70.32 71.16 71.72 72.52 73.30 73.59 74.06 74.41 74.71 74.97 74.69 75.35 76.81 76.85 77.04 76.74 78.32 77.01 77.01 76.31 75.95 75.28 76.42 76.48 76.48 75.72 76.51 75.61 75.68 73.02 71.12 69.93 70.08 70.45 69.97
60.99 53.22 58.56 61.22 66.04 65.86 65.59 63.80 66.78 68.77 68.16 67.41 68.38 69.25 69.91 70.72 71.81 72.79 73.28 73.78 74.28 74.79 74.94 75.20 75.93 75.83 76.32 77.65 78.62 78.72 77.75 77.00 76.10 73.67 73.47 74.14 75.61 75.93 76.05 75.50 77.06 76.75 77.10 75.24 74.21 72.54 71.03 71.33 69.28
58.02 57.25 58.32 57.85 62.05 63.89 64.39 64.27 67.36 68.11 67.81 67.48 67.78 68.64 69.34 69.89 70.93 72.72 73.35 73.77 74.10 74.68 75.48 76.13 76.20 77.02 77.64 77.84 79.08 77.35 76.92 79.19 76.93 74.84 73.59 74.55 74.29 73.81 73.97 73.10 74.87 76.15 75.22 74.73 74.92 74.99 74.20 73.20 72.96
60.45 58.69 57.19 59.46 60.73 60.94 61.65 62.68 66.41 68.13 67.97 67.39 67.56 68.00 68.68 69.64 71.61 72.71 73.16 73.28 73.88 74.56 75.14 75.91 75.94 77.59 77.44 76.69 76.55 78.97 77.27 76.52 77.02 76.96 76.83 76.40 75.31 74.83 75.07 73.47 73.02 73.93 74.33 75.53 75.75 75.42 74.63 74.78 74.93
59.66 58.24 58.20 59.54 60.70 61.24 61.20 60.93 64.19 68.07 67.95 68.36 68.03 67.67 68.53 69.68 70.73 72.01 72.98 73.13 73.49 74.55 75.39 76.18 76.84 77.52 77.72 77.22 77.13 76.42 76.48 74.94 75.72 77.18 77.66 77.87 77.13 77.49 77.38 74.73 76.22 77.32 77.00 75.34 74.61 74.66 75.04 74.83 75.63
59.43 58.37 58.13 57.29 59.95 61.23 61.28 57.56 58.06 64.41 68.71 68.98 69.44 69.46 68.76 69.74 70.09 71.35 71.45 72.77 73.41 74.05 75.56 76.75 77.72 78.29 78.39 78.46 77.64 77.16 77.06 76.73 75.22 76.53 77.05 77.47 77.10 77.32 77.91 77.66 77.55 77.45 76.50 75.45 74.37 73.48 72.28 69.56 74.62
56.88 60.35 58.82 58.08 57.92 54.88 59.73 54.51 59.28 58.88 66.35 67.82 68.56 69.21 69.27 69.51 70.91 71.18 72.27 70.82 71.49 74.65 76.45 77.58 78.21 78.45 78.33 78.64 78.29 78.57 76.22 75.50 75.88 76.36 76.94 78.46 77.97 77.80 77.57 76.82 76.59 76.46 76.17 75.62 74.74 74.56 71.67 73.52 72.36
58.61 60.39 59.07 58.79 57.79 57.10 57.42 55.72 59.19 61.86 63.96 66.37 68.10 69.21 69.74 70.48 71.17 71.16 72.10 69.01 73.07 73.92 75.72 77.51 77.98 77.40 78.15 78.23 77.53 76.78 75.79 76.61 77.54 76.48 77.50 77.98 78.37 77.80 77.44 78.46 77.75 77.61 75.60 75.52 75.52 74.79 74.45 75.17 73.33
61.40 59.49 58.72 58.42 57.34 52.82 55.69 55.28 55.69 57.50 63.03 65.17 68.23 69.27 69.94 70.56 71.65 72.18 72.82 71.60 73.26 74.93 75.89 76.54 76.83 74.97 75.57 76.02 74.35 74.69 75.05 75.73 75.68 76.20 74.53 75.55 75.65 75.94 76.39 75.06 76.40 77.25 77.27 76.68 76.29 75.89 74.76 74.79 74.47
59.41 56.82 51.82 50.78 51.09 50.44 57.32 54.43 56.40 62.29 64.38 64.97 65.76 69.02 70.25 71.16 71.78 73.07 72.88 72.82 73.63 74.34 75.30 75.76 75.75 75.08 75.89 72.83 73.01 73.21 74.84 74.44 74.51 75.15 73.97 74.07 72.80 72.46 72.82 73.33 73.96 73.54 74.33 74.54 75.74 75.54 75.61 75.20 73.47
56.99 55.62 51.43 48.04 48.82 50.24 54.65 50.87 57.54 63.81 67.37 67.56 67.74 69.55 70.42 71.24 72.38 73.19 72.97 73.29 73.23 74.18 75.04 75.17 75.20 73.91 73.92 74.41 74.11 73.73 73.63 74.18 72.87 73.35 73.32 72.99 72.49 71.77 71.51 70.68 71.38 71.48 71.59 72.08 73.02 74.10 74.71 74.47 74.29
54.84 52.95 55.76 51.99 53.82 52.24 54.50 55.73 60.58 65.23 66.57 67.53 68.18 68.63 69.84 70.97 72.57 73.01 72.95 73.23 73.21 73.24 73.71 74.12 74.29 73.69 73.86 74.17 74.23 73.67 73.00 72.93 71.93 71.78 72.35 70.90 70.61 68.99 69.01 68.58 68.31 68.67 68.91 69.85 70.14 69.89 71.07 71.00 72.10
55.14 57.38 52.06 52.62 48.60 47.85 52.66 54.08 57.30 60.73 64.33 67.14 67.32 68.42 70.56 71.96 72.58 72.66 72.57 73.25 73.62 74.54 73.81 73.62 73.61 72.65 73.07 72.79 73.24 72.29 72.03 71.60 71.02 70.29 69.04 68.48 68.03 68.02 67.75 67.55 67.48 67.75 68.12 68.00 68.15 67.94 69.56 67.98 68.05
53.68 52.89 54.31 54.57 53.19 49.89 49.30 53.31 59.52 56.12 63.29 66.77 68.21 69.78 70.78 71.40 71.81 72.03 72.77 73.27 73.59 74.30 73.33 72.13 71.37 71.34 71.45 71.56 71.17 70.46 69.60 68.95 68.83 67.52 67.12 67.16 67.17 67.17 66.94 67.17 67.13 67.15 67.23 66.78 66.45 66.56 67.19 66.50 66.79
55.40 54.00 53.94 50.43 51.40 54.45 54.45 51.88 61.76 60.07 64.79 68.00 68.81 70.40 71.60 72.08 72.08 72.57 73.23 72.74 72.38 73.08 71.90 70.66 70.28 70.40 70.47 70.22 69.68 68.58 68.15 67.74 66.78 66.16 66.16 66.44 66.16 66.71 66.60 66.41 65.90 64.91 64.47 64.22 64.15 63.55 65.03 64.76 65.62
MSLP
1005.46 1005.02 1004.20 1002.98 1002.31 1000.06 1000.57 1000.88 1000.61 1001.26 1001.41 1002.18 1002.60 1002.90 1004.34 1005.64 1006.58 1010.68 1012.87 1013.20 1013.00 1013.33 1013.29 1013.28 1013.34 1013.39 1013.47 1013.66 1013.75 1013.93 1013.90 1014.04 1014.16 1014.20 1014.28 1014.42 1014.43 1014.59 1014.58 1014.68 1014.81 1014.96 1014.95 1014.95 1015.09 1015.22 1015.36 1015.52 1015.59
1003.33 1003.45 1003.03 1001.20 1000.60 999.89 1000.63 1000.65 1000.69 1001.20 1001.96 1002.59 1002.96 1003.07 1004.33 1006.71 1008.02 1011.01 1013.05 1013.13 1013.04 1012.96 1013.12 1013.08 1013.45 1013.50 1013.71 1013.80 1013.91 1014.10 1014.03 1014.27 1014.34 1014.44 1014.58 1014.54 1014.68 1014.68 1014.77 1014.85 1014.96 1015.13 1015.14 1015.26 1015.40 1015.54 1015.67 1015.82 1015.95
1003.79 1002.78 1001.49 999.26 999.57 1000.08 1000.92 1001.54 1001.90 1002.25 1002.18 1002.55 1003.19 1003.97 1004.88 1007.53 1008.69 1010.51 1011.51 1012.69 1012.52 1012.37 1012.64 1012.87 1013.49 1013.62 1013.80 1013.97 1014.16 1014.20 1014.33 1014.47 1014.51 1014.61 1014.70 1014.77 1014.81 1014.92 1014.99 1014.99 1015.09 1015.31 1015.34 1015.57 1015.66 1015.81 1015.89 1016.12 1016.18
1001.91 1001.42 1000.10 999.00 999.81 1000.59 1001.01 1001.30 1001.63 1002.05 1002.65 1003.08 1003.52 1005.21 1006.78 1007.42 1008.31 1009.99 1011.20 1011.69 1012.04 1012.15 1012.09 1013.28 1013.57 1013.75 1013.89 1014.04 1014.25 1014.30 1014.48 1014.65 1014.69 1014.75 1014.86 1014.99 1015.06 1015.13 1015.16 1015.22 1015.36 1015.50 1015.62 1015.80 1015.97 1016.12 1016.25 1016.42 1016.48
1001.18 999.28 998.62 999.56 1000.32 1001.01 1001.32 1001.24 1001.23 1001.96 1002.70 1003.11 1003.47 1005.49 1007.29 1007.87 1008.31 1009.90 1010.92 1011.52 1011.25 1011.97 1011.98 1013.08 1013.67 1013.81 1014.02 1014.24 1014.33 1014.40 1014.57 1014.69 1014.72 1014.80 1015.13 1015.18 1015.18 1015.26 1015.54 1015.56 1015.67 1015.77 1015.85 1015.95 1016.04 1016.16 1016.45 1016.61 1016.68
999.23 997.54 998.19 999.26 1000.34 1001.09 1001.51 1001.29 1001.78 1002.28 1003.03 1003.75 1004.54 1005.75 1007.49 1007.95 1008.57 1009.77 1010.38 1011.21 1011.10 1011.40 1011.37 1012.92 1013.90 1013.96 1014.12 1014.29 1014.46 1014.62 1014.77 1014.82 1014.92 1014.99 1015.40 1015.40 1015.37 1015.44 1015.82 1015.86 1015.99 1015.98 1016.01 1016.20 1016.24 1016.44 1016.57 1016.75 1016.81
997.87 997.78 998.21 999.06 1000.57 1001.43 1001.84 1001.58 1001.94 1002.35 1002.62 1003.30 1004.29 1005.59 1007.27 1008.27 1008.54 1009.39 1010.37 1011.34 1011.45 1010.96 1011.43 1012.37 1013.15 1013.88 1014.25 1014.45 1014.59 1014.80 1014.89 1014.96 1015.07 1015.17 1015.32 1015.56 1015.54 1015.72 1015.91 1016.17 1016.22 1016.25 1016.30 1016.39 1016.40 1016.48 1016.64 1016.82 1016.85
998.01 997.15 997.97 999.19 1000.37 1001.64 1002.22 1002.53 1002.32 1002.75 1003.44 1003.70 1004.15 1005.53 1006.92 1008.49 1009.02 1010.06 1010.67 1011.35 1011.58 1011.41 1011.28 1011.68 1012.52 1013.25 1013.70 1014.20 1014.75 1014.90 1014.95 1015.04 1015.21 1015.30 1015.32 1015.43 1015.69 1015.87 1016.02 1016.27 1016.24 1016.32 1016.38 1016.33 1016.38 1016.54 1016.66 1016.74 1016.79
997.86 997.35 998.34 999.38 1000.19 1001.61 1001.99 1002.29 1003.29 1003.66 1003.81 1004.13 1004.40 1005.20 1006.34 1007.81 1008.43 1009.66 1010.74 1011.09 1011.68 1010.52 1010.38 1010.94 1011.89 1012.48 1012.50 1012.84 1014.15 1014.64 1014.83 1015.03 1015.14 1015.13 1015.30 1015.57 1015.57 1015.78 1016.19 1016.23 1016.21 1016.18 1016.12 1016.31 1016.32 1016.37 1016.49 1016.60 1016.65
996.86 998.15 999.36 999.87 1000.45 1001.31 1001.91 1002.47 1003.23 1003.40 1003.90 1004.38 1004.46 1005.54 1006.98 1007.87 1008.25 1008.60 1009.26 1009.83 1010.35 1010.22 1010.60 1010.75 1011.30 1011.90 1012.26 1012.44 1013.46 1013.63 1014.01 1013.87 1014.10 1015.09 1015.14 1015.11 1015.06 1014.95 1015.45 1016.01 1015.87 1015.94 1015.86 1015.94 1015.92 1016.05 1016.19 1016.35 1015.46
997.78 998.58 999.57 1000.64 1001.05 1001.47 1001.91 1002.37 1002.63 1002.25 1002.79 1003.94 1005.03 1006.15 1007.06 1007.72 1008.17 1008.20 1008.62 1009.20 1009.67 1010.44 1010.49 1010.80 1011.55 1011.74 1012.29 1012.25 1012.48 1013.06 1013.05 1013.34 1014.25 1014.80 1014.97 1014.73 1014.39 1014.59 1014.63 1015.56 1015.55 1015.71 1015.79 1015.08 1015.74 1016.21 1015.57 1014.87 1014.72
998.18 999.24 999.83 1000.67 1001.12 1001.48 1001.85 1002.22 1002.74 1002.95 1003.49 1003.91 1005.22 1006.39 1006.88 1007.37 1007.45 1007.77 1008.25 1008.69 1009.37 1010.22 1010.55 1010.80 1011.72 1012.23 1012.45 1012.56 1012.93 1013.33 1012.75 1013.38 1014.07 1014.14 1014.66 1014.46 1014.93 1014.72 1014.58 1014.76 1015.53 1015.44 1015.71 1015.40 1015.84 1016.30 1015.61 1014.54 1015.14
998.11 999.21 1000.04 1000.74 1001.07 1001.45 1001.86 1002.44 1003.10 1003.66 1004.12 1004.53 1005.58 1006.45 1006.82 1006.94 1007.25 1007.63 1008.24 1008.84 1009.51 1010.27 1010.61 1010.80 1011.65 1012.63 1013.29 1013.65 1013.96 1013.61 1013.37 1013.27 1013.58 1013.81 1014.56 1013.85 1014.21 1014.74 1014.55 1014.83 1015.08 1015.28 1015.23 1014.75 1015.01 1014.79 1014.63 1014.33 1014.48
998.63 999.10 999.66 1000.22 1000.85 1001.30 1001.50 1002.20 1002.51 1004.01 1004.30 1004.92 1005.75 1006.17 1006.52 1006.57 1006.95 1007.50 1007.89 1008.49 1009.21 1010.04 1010.52 1011.00 1012.01 1013.04 1013.44 1013.94 1014.07 1014.08 1013.80 1013.37 1013.83 1014.25 1014.26 1014.42 1014.44 1014.44 1014.42 1014.66 1014.86 1014.84 1014.87 1015.00 1014.89 1014.79 1015.02 1015.02 1014.74
998.45 998.47 999.07 999.65 1000.29 1000.28 1000.66 1001.12 1002.51 1003.80 1004.32 1004.91 1005.45 1005.78 1006.01 1006.20 1006.55 1006.97 1007.39 1007.97 1008.75 1009.51 1009.97 1010.73 1011.55 1012.41 1013.32 1013.57 1013.79 1013.74 1013.77 1013.75 1013.57 1013.70 1014.36 1014.44 1014.41 1014.66 1014.66 1014.83 1014.93 1014.64 1015.07 1015.32 1015.45 1014.78 1014.67 1015.22 1015.48
997.77 997.75 998.00 999.00 999.88 1000.11 1000.25 1000.94 1002.57 1003.56 1004.00 1004.39 1004.94 1005.37 1005.85 1006.10 1006.40 1006.94 1007.39 1007.82 1008.50 1008.65 1009.62 1010.43 1010.90 1011.40 1012.60 1012.89 1013.19 1013.47 1013.65 1013.42 1013.38 1013.34 1013.66 1014.13 1014.38 1014.43 1014.36 1014.55 1014.57 1014.38 1014.77 1014.87 1015.18 1015.26 1015.31 1015.39 1015.65
996.89 999.55 997.31 998.01 999.28 999.60 1000.20 1000.37 1002.00 1002.86 1003.21 1003.67 1004.22 1004.76 1005.38 1005.89 1006.22 1006.88 1007.26 1007.75 1007.96 1008.73 1009.54 1010.09 1010.75 1011.35 1012.01 1012.58 1013.00 1013.50 1013.51 1013.51 1013.77 1013.94 1014.11 1014.08 1014.07 1014.08 1014.15 1013.82 1014.06 1014.01 1014.26 1014.38 1014.53 1014.64 1014.91 1014.88 1015.14
996.21 996.02 996.97 997.54 998.31 998.95 999.41 1000.05 1001.22 1002.15 1002.38 1002.78 1003.34 1004.06 1004.79 1005.23 1005.72 1006.24 1006.82 1007.49 1007.81 1008.37 1009.34 1010.13 1010.46 1011.26 1011.75 1012.30 1013.15 1013.35 1013.34 1013.29 1013.37 1013.97 1014.26 1014.23 1014.44 1014.41 1014.25 1014.23 1013.80 1013.74 1013.66 1013.73 1013.92 1014.19 1014.51 1014.40 1014.20
996.32 996.47 996.95 997.36 998.14 998.32 998.18 998.69 999.65 1001.24 1001.64 1001.89 1002.38 1003.13 1003.81 1004.11 1004.75 1005.68 1006.32 1007.01 1007.66 1008.34 1009.11 1009.90 1010.52 1011.09 1011.77 1012.31 1012.50 1013.10 1012.91 1012.57 1012.94 1012.81 1013.40 1013.83 1014.02 1014.13 1014.15 1014.06 1014.14 1013.76 1013.63 1013.55 1013.61 1013.64 1013.62 1013.80 1013.90
996.89 996.67 996.63 997.09 997.71 997.99 997.43 998.21 998.32 999.74 1000.65 1000.92 1001.50 1002.05 1002.78 1003.39 1004.25 1005.30 1006.10 1006.69 1007.02 1007.90 1008.79 1009.62 1010.25 1011.04 1011.54 1011.36 1011.96 1012.27 1012.81 1012.86 1012.72 1012.39 1012.59 1012.84 1013.13 1013.00 1013.29 1013.77 1013.55 1013.06 1013.28 1013.46 1013.62 1013.25 1013.25 1013.25 1013.31
996.77 996.34 996.18 997.00 997.30 997.03 997.56 999.16 999.93 999.68 1000.14 1000.17 1000.68 1001.25 1001.88 1002.75 1003.56 1005.36 1006.56 1007.01 1007.20 1006.98 1008.23 1009.12 1010.02 1010.81 1011.19 1010.96 1011.68 1012.32 1012.49 1012.72 1012.87 1012.47 1012.33 1012.72 1012.89 1012.90 1012.66 1012.81 1012.94 1012.98 1013.06 1012.79 1013.12 1013.18 1013.29 1012.87 1012.46
996.15 995.96 996.68 997.26 997.05 997.02 998.01 998.04 1000.45 1001.35 999.64 999.57 999.78 1000.43 1001.13 1002.21 1003.47 1005.64 1006.87 1007.54 1007.54 1006.82 1007.89 1008.91 1009.69 1010.30 1010.70 1011.26 1011.34 1011.60 1011.33 1011.71 1012.18 1012.65 1012.53 1012.56 1012.56 1012.59 1012.72 1012.88 1012.77 1012.82 1012.89 1012.92 1013.05 1013.02 1013.21 1012.91 1012.05
996.28 996.58 997.25 997.38 997.28 996.69 995.95 996.92 997.62 997.08 997.69 998.27 999.04 999.47 1000.32 1001.69 1003.02 1004.34 1006.58 1007.67 1007.56 1007.97 1008.38 1009.00 1009.98 1010.71 1010.79 1011.00 1011.43 1011.79 1011.90 1012.09 1012.00 1012.12 1012.23 1012.32 1012.47 1012.21 1012.31 1012.30 1012.42 1012.53 1012.70 1012.73 1012.82 1012.76 1012.67 1012.21 1012.07
996.52 996.84 997.12 997.49 997.27 996.64 996.81 997.84 997.08 997.38 995.96 996.90 997.84 998.83 999.78 1000.90 1002.91 1004.22 1006.21 1007.54 1007.69 1008.00 1008.73 1009.55 1010.50 1011.62 1011.46 1011.63 1011.74 1013.20 1013.09 1012.28 1012.27 1011.73 1011.58 1011.45 1011.73 1012.01 1012.87 1013.04 1012.98 1012.64 1012.78 1012.70 1012.58 1012.51 1012.45 1012.26 1012.04
996.38 996.53 996.51 996.42 996.25 997.08 998.24 998.89 995.73 996.24 996.74 997.10 997.51 998.30 999.36 1000.39 1002.56 1004.33 1006.04 1007.37 1008.00 1008.53 1009.04 1009.96 1010.93 1011.81 1011.91 1012.57 1012.46 1013.02 1013.32 1013.12 1012.77 1012.01 1012.22 1012.48 1012.71 1012.92 1013.29 1013.56 1013.34 1013.09 1013.08 1012.96 1012.84 1012.58 1012.37 1012.25 1012.16
995.59 996.07 995.80 995.36 995.18 998.00 999.43 999.50 995.71 996.20 996.78 997.47 997.89 998.17 999.24 1000.22 1002.13 1004.12 1006.33 1007.09 1007.92 1008.76 1009.42 1010.19 1011.09 1011.86 1012.10 1012.33 1012.84 1013.20 1013.55 1013.05 1012.95 1013.01 1012.86 1012.94 1012.95 1013.03 1013.55 1013.71 1013.45 1013.40 1013.23 1013.19 1013.00 1012.50 1012.46 1012.32 1012.06
994.99 995.29 995.64 995.15 994.44 995.48 997.46 997.62 996.49 996.41 996.78 997.78 998.04 998.74 999.48 1000.58 1002.22 1004.30 1005.82 1007.15 1008.08 1009.20 1010.00 1010.54 1011.17 1011.75 1012.02 1012.27 1012.65 1013.10 1013.39 1013.36 1013.43 1013.51 1013.11 1013.25 1013.67 1013.53 1013.92 1014.13 1014.01 1013.85 1013.72 1013.60 1013.44 1012.58 1012.50 1012.56 1012.14
995.15 994.67 994.73 994.79 994.39 994.46 996.19 995.25 995.48 996.21 996.60 997.92 998.28 998.99 1000.07 1001.24 1002.64 1004.19 1005.54 1007.08 1008.06 1008.88 1010.13 1010.88 1011.55 1012.06 1012.15 1012.57 1012.89 1013.17 1013.59 1013.60 1013.83 1013.97 1014.14 1014.26 1014.24 1014.19 1014.26 1014.41 1014.25 1014.01 1013.71 1013.65 1013.49 1013.03 1012.63 1012.62 1012.31
994.99 994.83 994.64 994.12 993.86 993.85 993.96 994.82 997.22 1000.06 997.61 997.80 998.50 999.63 1000.77 1001.83 1003.05 1004.26 1005.63 1007.30 1008.06 1008.74 1010.25 1011.29 1011.92 1012.46 1012.51 1012.78 1013.27 1013.48 1013.63 1013.91 1014.02 1014.21 1014.48 1014.45 1014.58 1014.75 1014.78 1014.75 1014.41 1014.21 1014.04 1014.18 1014.09 1013.85 1013.02 1012.97 1012.69
994.15 994.06 994.43 993.74 993.74 993.14 993.20 994.69 995.83 996.47 995.90 997.33 998.30 999.95 1001.24 1002.34 1003.34 1004.61 1005.87 1007.48 1008.49 1009.19 1010.52 1011.20 1011.71 1012.11 1012.50 1013.24 1013.52 1013.81 1014.01 1014.23 1014.37 1014.58 1014.76 1014.89 1014.92 1014.96 1015.01 1015.00 1014.98 1015.19 1015.07 1015.09 1014.69 1014.33 1013.81 1013.60 1012.87
Wind_Speed
15 13 13 8 6 7 13 12 11 9 12 15 13 13 19 15 12 13 11 13 12 9 6 6 6 9 10 11 12 12 13 12 10 9 9 8 9 7 10 10 11 11 12 12 12 12 12 12 12
13 8 8 7 2 11 12 15 16 14 15 10 9 8 19 21 22 23 17 16 15 13 9 10 8 10 11 12 13 13 13 11 10 9 8 8 7 7 10 10 11 11 11 12 12 11 13 12 11
19 7 9 2 12 12 13 13 12 11 6 6 7 15 11 15 18 21 23 26 20 13 12 13 11 10 11 11 11 12 12 11 9 7 8 7 7 8 9 10 11 10 11 10 12 12 12 11 10
8 8 8 12 16 16 14 9 10 10 11 6 15 16 18 13 14 19 26 23 17 16 13 16 13 12 11 11 11 11 11 10 8 7 6 5 6 7 9 9 9 9 11 11 12 11 12 10 9
13 8 13 13 15 13 11 7 8 11 8 7 13 20 13 8 25 25 23 18 17 11 15 15 13 13 12 11 10 11 10 8 7 7 6 5 6 8 7 7 8 8 9 10 11 13 11 8 7
8 3 12 12 12 14 9 10 11 12 11 16 22 19 9 16 19 20 19 16 13 17 17 16 13 11 12 12 10 9 8 7 6 3 4 5 3 7 5 4 5 7 8 9 10 10 10 7 6
8 10 15 17 13 11 9 13 11 9 10 18 16 17 16 16 18 14 17 14 10 7 11 14 14 10 10 9 8 7 7 7 5 4 2 4 5 12 9 5 3 5 7 8 8 8 8 6 5
9 11 19 17 13 12 7 9 7 11 13 9 14 10 18 16 17 16 13 12 9 9 15 14 13 13 12 11 9 6 6 5 4 4 5 6 9 10 10 3 5 4 4 7 7 7 7 7 5
10 13 13 15 15 12 5 12 11 11 10 8 1 18 21 20 22 20 14 16 7 11 11 15 13 12 10 13 11 9 7 5 5 8 8 7 5 3 4 6 5 5 5 8 8 8 8 8 8
8 11 15 17 15 11 9 14 9 8 9 8 12 23 20 18 15 16 14 14 16 9 10 9 12 10 8 7 10 7 8 9 7 5 3 4 3 2 9 10 12 10 10 10 11 11 10 9 9
15 11 14 14 14 11 9 10 8 9 11 11 15 21 20 18 14 14 14 14 12 10 8 11 5 8 5 6 5 4 5 3 6 7 6 5 3 4 6 5 3 2 6 9 11 8 10 12 9
15 9 11 9 7 10 9 10 12 12 8 12 16 19 18 17 16 15 13 13 13 12 9 11 8 4 4 4 3 5 3 4 4 6 8 4 3 2 3 2 2 5 8 4 4 4 14 3 3
13 7 9 7 8 9 10 13 12 11 9 13 18 18 16 15 12 10 10 10 10 11 10 9 10 6 4 3 3 2 6 3 2 3 2 5 4 4 1 0 4 4 7 4 3 5 5 6 7
7 3 8 8 6 6 10 10 9 10 13 16 17 16 15 12 13 12 12 12 12 11 12 10 10 8 8 5 4 3 5 3 1 5 3 1 4 4 5 3 2 7 5 4 7 2 3 4 9
7 11 9 6 5 2 5 11 13 13 14 16 15 13 13 13 12 12 11 10 11 11 14 11 10 13 10 8 8 4 3 3 5 5 2 3 6 4 7 5 3 5 2 3 3 5 5 2 5
14 10 9 10 6 3 10 11 14 14 14 15 15 13 12 12 12 10 10 10 12 11 13 10 9 12 11 9 6 4 2 3 3 5 7 7 4 7 6 7 6 7 4 7 5 3 5 4 4
12 10 8 12 7 3 6 11 15 15 15 14 14 14 13 13 12 11 12 10 12 8 12 10 10 5 10 8 4 4 7 6 3 2 2 3 3 4 4 5 4 5 5 7 5 6 8 9 8
22 5 11 1 9 7 10 5 15 16 15 15 15 14 13 13 14 15 12 12 9 13 9 8 9 6 5 5 5 5 6 5 5 4 4 3 3 4 4 3 6 4 7 7 7 8 6 7 8
6 8 2 5 3 8 7 8 19 17 16 15 15 16 15 15 15 14 13 12 13 9 12 11 8 9 6 6 5 4 5 4 4 4 5 7 9 9 6 4 5 7 7 5 7 7 9 7 8
11 8 10 5 4 8 9 7 11 20 19 16 15 15 16 15 17 13 12 13 12 13 12 12 10 10 9 7 5 4 5 4 6 3 4 6 8 10 7 8 8 7 4 6 7 7 5 6 6
13 13 4 6 10 18 13 8 12 13 17 17 15 14 15 16 17 13 6 5 8 12 14 13 12 12 10 8 5 5 5 4 2 3 3 4 7 10 8 8 5 7 6 7 5 6 6 7 5
18 11 3 11 14 3 24 3 11 14 17 17 17 16 15 16 16 16 9 7 9 6 8 13 13 13 11 9 8 8 4 5 4 4 1 3 4 4 4 5 6 6 5 6 6 7 8 8 8
15 3 8 12 14 19 14 9 10 13 19 18 15 16 16 17 13 19 19 14 13 7 8 10 10 9 9 8 2 4 2 2 4 4 3 3 1 3 4 5 6 5 4 6 7 8 6 8 7
13 15 9 14 15 15 8 10 14 8 6 11 16 15 16 19 14 16 20 16 10 8 8 11 11 3 6 5 11 9 6 3 2 3 2 2 1 4 8 10 9 8 7 7 7 7 7 8 8
21 15 12 15 15 3 13 16 11 13 9 6 5 15 16 17 18 19 14 14 10 11 11 11 11 8 8 4 8 10 4 3 2 2 5 4 3 5 8 7 7 7 7 7 7 8 8 7 5
18 18 15 18 17 9 11 12 6 12 12 8 7 9 14 15 17 16 14 12 12 11 11 11 11 8 6 5 5 6 5 2 4 6 4 4 3 4 6 8 9 10 10 10 9 9 7 8 6
19 19 21 26 26 9 15 11 26 15 14 8 12 11 13 14 17 17 16 13 10 11 11 10 10 7 7 7 6 7 6 5 6 4 3 4 6 6 9 8 8 9 9 9 10 7 7 8 9
20 15 12 14 22 17 21 7 1 14 15 12 13 15 14 15 16 15 13 13 11 13 11 11 9 8 8 8 7 7 6 6 5 6 6 6 7 8 8 8 8 9 9 10 10 9 9 10 8
16 18 15 20 15 16 13 5 10 18 14 15 15 15 16 16 15 15 14 12 9 10 15 12 12 11 10 9 7 6 6 6 5 6 6 7 7 7 7 8 8 9 11 13 12 12 10 10 10
24 21 22 15 17 14 15 3 20 24 21 14 17 16 16 16 16 15 14 14 12 12 12 12 12 11 10 8 7 6 6 5 6 5 5 6 6 6 6 9 10 11 8 8 7 8 9 10 10
Wind_Direction
179 192 221 219 257 80 84 90 104 94 83 69 45 63 73 33 36 107 139 191 196 190 183 188 164 122 112 119 127 136 131 130 137 129 121 117 119 122 110 113 115 117 116 114 113 111 116 113 116
187 195 238 263 278 70 53 40 48 67 78 94 59 73 71 66 87 122 150 196 180 175 192 164 150 127 115 111 119 129 131 134 135 129 124 114 115 114 115 117 118 120 117 114 117 121 117 113 116
256 241 258 31 43 62 74 71 75 85 119 57 92 45 38 113 107 142 149 180 183 157 171 128 146 136 129 125 126 128 130 135 132 122 115 122 128 128 123 118 112 125 119 112 125 121 114 109 109
258 200 240 54 66 67 83 95 98 95 64 46 112 90 81 95 111 134 143 159 157 168 162 132 150 142 137 135 134 135 137 136 137 128 127 135 129 135 128 117 123 121 126 128 127 127 117 116 115
233 266 85 76 74 76 70 70 60 81 77 69 98 102 98 120 120 128 146 155 166 150 140 146 150 144 142 142 144 135 139 141 123 129 126 132 155 130 121 134 132 132 122 137 135 130 125 125 120
263 8 64 70 67 91 66 91 74 84 86 91 105 110 105 123 130 139 142 154 166 177 147 135 141 149 142 146 140 140 134 128 123 119 119 130 140 111 117 128 145 155 140 139 136 137 139 138 123
257 77 73 79 80 71 68 51 64 94 112 108 130 110 128 132 138 135 125 133 159 165 141 149 154 141 136 139 130 135 138 129 128 111 80 119 82 91 48 347 190 158 149 147 153 152 152 163 151
296 72 63 63 74 83 75 82 48 74 89 118 120 133 143 160 125 121 137 136 160 190 180 148 152 165 174 155 148 144 132 131 138 122 122 106 99 112 134 175 304 183 176 166 162 167 175 189 192
252 64 54 56 68 96 145 93 73 104 132 101 17 138 136 145 148 147 156 148 186 212 159 157 160 169 198 149 149 156 158 160 166 169 120 126 155 172 129 163 233 258 198 186 185 183 192 205 210
101 64 55 46 65 83 70 85 128 136 126 130 96 108 133 151 154 155 166 157 182 170 178 155 166 155 169 135 152 194 163 185 156 75 89 190 141 165 143 220 203 206 212 214 204 199 201 217 224
48 74 79 61 51 77 99 111 182 163 144 146 134 140 152 156 169 165 171 163 176 178 187 145 138 157 209 115 162 189 189 156 127 168 196 193 192 204 164 161 201 347 241 214 193 209 219 213 234
93 52 76 77 79 76 87 81 60 36 48 127 140 149 158 165 174 170 170 169 165 178 186 146 155 136 260 24 2 338 142 156 111 196 199 172 230 46 273 126 27 276 180 319 117 227 264 12 311
102 95 98 103 87 91 87 80 90 92 101 123 135 157 161 177 168 165 159 163 170 176 178 167 159 146 70 47 357 312 298 191 145 110 138 237 217 209 211 315 219 233 296 196 269 301 336 296 265
99 88 121 136 117 113 127 135 123 116 126 132 150 163 169 173 170 161 181 172 176 177 173 177 154 123 168 126 111 201 236 217 293 42 110 16 309 299 284 240 263 230 211 281 296 198 264 282 277
172 159 158 140 152 159 175 140 112 140 146 149 163 172 170 181 175 168 183 183 178 180 152 175 188 164 188 206 190 198 348 99 192 191 164 199 220 238 262 265 243 261 208 233 287 282 276 302 278
218 259 158 117 147 184 254 114 138 156 160 162 169 172 177 185 179 180 184 185 166 180 149 181 191 170 170 176 192 112 308 247 237 207 195 191 231 253 229 241 230 233 213 218 218 231 246 239 238
218 189 89 146 154 167 266 135 161 173 173 169 174 171 181 183 197 178 172 198 161 201 158 189 173 162 158 181 135 192 191 218 203 117 325 31 250 243 259 254 288 256 223 237 219 217 230 223 227
301 112 125 19 124 195 191 221 166 187 188 181 178 167 178 179 190 170 193 185 199 163 173 199 166 187 171 131 146 207 209 209 236 220 217 204 254 256 264 293 294 264 268 238 227 241 221 244 244
309 336 50 96 116 274 235 232 161 188 199 191 187 172 178 183 172 166 182 181 175 195 172 175 193 153 192 188 189 184 218 216 231 223 230 224 241 220 262 267 265 253 253 302 280 256 261 252 241
254 246 240 212 207 261 263 9 188 176 204 200 195 180 178 182 153 168 179 171 192 178 178 174 180 177 199 188 196 195 184 210 230 262 219 254 262 275 260 212 252 291 279 246 262 265 286 247 235
244 252 301 325 300 256 317 79 269 279 193 205 199 196 184 181 167 136 195 156 265 174 176 171 179 171 191 182 175 187 176 205 209 259 228 256 251 262 292 297 290 281 268 286 288 260 286 292 257
258 232 198 266 279 255 214 236 164 268 199 200 197 190 192 185 167 143 142 75 221 229 165 163 174 173 179 185 181 205 225 207 130 196 166 286 195 254 248 269 280 291 297 274 271 247 231 253 280
255 141 289 288 285 281 295 321 179 194 181 186 203 201 194 172 192 162 137 176 216 184 184 156 164 170 155 167 200 195 206 18 138 159 175 145 219 298 338 347 332 301 274 298 286 285 285 284 283
252 260 261 258 260 264 60 295 138 134 137 156 180 203 195 167 182 135 156 175 194 131 147 149 151 109 153 144 105 346 292 211 257 121 178 120 58 124 40 357 359 347 347 335 308 291 280 289 296
236 234 243 237 234 211 355 315 117 142 113 129 187 176 187 175 161 146 138 166 149 157 156 143 140 152 127 122 142 173 242 326 325 296 57 44 59 14 26 342 345 342 345 335 338 322 300 293 283
212 238 245 252 255 52 41 263 114 105 107 125 146 164 177 172 153 148 158 159 155 145 146 132 143 145 163 169 173 151 174 140 63 50 70 58 48 51 17 355 351 347 342 339 342 324 329 325 320
234 217 245 259 268 210 168 200 273 140 125 137 147 159 157 159 153 157 166 154 147 132 142 138 136 128 152 142 136 143 145 115 91 72 24 33 34 14 23 357 352 351 346 345 342 314 351 356 343
250 263 227 246 262 272 263 211 334 174 138 146 146 148 146 153 151 157 162 138 162 144 122 124 126 126 127 120 127 105 102 87 83 64 48 42 31 25 14 360 356 353 360 359 349 349 344 348 331
216 238 250 270 234 262 264 200 100 56 283 158 153 149 154 153 158 155 147 147 145 139 117 131 129 139 135 114 109 101 91 83 68 68 51 36 41 20 13 4 3 1 13 9 2 345 354 343 350
250 218 234 244 252 260 287 163 213 186 207 154 146 148 150 155 152 148 137 144 145 131 138 135 145 138 118 122 123 113 100 89 79 59 70 45 43 30 32 23 9 23 3 357 357 344 343 344 334